| time (UTC) | temp F | wind direction | speed knots | gust knots | rain 1hr in | rain 24hr in | rain mn in | humidity % | barometer mb |
| 20260902044337 | 84 | 130 | 2.6 | 4.3 | 0.00 | 0.00 | 0.00 | 83 | 1018.5 |
| 20260902043310 | 84 | 184 | 1.7 | 6.1 | 0.00 | 0.00 | 0.00 | 83 | 1018.5 |
| 20260902042327 | 84 | 69 | 2.6 | 6.1 | 0.00 | 0.00 | 0.00 | 82 | 1018.3 |
| 20260902041324 | 84 | 142 | 2.6 | 5.2 | 0.00 | 0.00 | 0.00 | 82 | 1018.2 |
| 20260902040321 | 85 | 161 | 2.6 | 5.2 | 0.00 | 0.00 | 0.00 | 82 | 1018.2 |
| 20260902035314 | 85 | 226 | 3.5 | 6.1 | 0.00 | 0.00 | 0.00 | 81 | 1018.1 |
| 20260902034316 | 85 | 158 | 2.6 | 5.2 | 0.00 | 0.00 | 0.00 | 81 | 1018.1 |
| 20260902033312 | 85 | 184 | 2.6 | 6.1 | 0.00 | 0.00 | 0.00 | 80 | 1018.0 |
| 20260902032309 | 86 | 63 | 3.5 | 6.1 | 0.00 | 0.00 | 0.00 | 79 | 1018.1 |
| 20260902031313 | 86 | 173 | 2.6 | 7.0 | 0.00 | 0.00 | 0.00 | 79 | 1018.0 |
| 20260902030310 | 86 | 205 | 1.7 | 7.0 | 0.00 | 0.00 | 0.00 | 78 | 1017.9 |
| 20260902025311 | 86 | 167 | 2.6 | 5.2 | 0.00 | 0.00 | 0.00 | 78 | 1018.0 |
| 20260902024313 | 86 | 155 | 2.6 | 4.3 | 0.00 | 0.00 | 0.00 | 77 | 1018.0 |
| 20260902023309 | 87 | 122 | 2.6 | 6.1 | 0.00 | 0.00 | 0.00 | 76 | 1017.9 |
| 20260902022331 | 87 | 144 | 2.6 | 5.2 | 0.00 | 0.00 | 0.00 | 75 | 1018.0 |
| 20260902021325 | 87 | 217 | 2.6 | 5.2 | 0.00 | 0.00 | 0.00 | 75 | 1017.9 |
| 20260902020344 | 87 | 187 | 2.6 | 4.3 | 0.00 | 0.00 | 0.00 | 75 | 1017.8 |
| 20260902015324 | 87 | 157 | 2.6 | 4.3 | 0.00 | 0.00 | 0.00 | 74 | 1017.7 |
| 20260902014320 | 87 | 145 | 2.6 | 4.3 | 0.00 | 0.00 | 0.00 | 74 | 1017.5 |
| 20260902013316 | 87 | 136 | 2.6 | 5.2 | 0.00 | 0.00 | 0.00 | 73 | 1017.5 |
| 20260902012320 | 88 | 175 | 1.7 | 4.3 | 0.00 | 0.00 | 0.00 | 72 | 1017.4 |
| 20260902011318 | 88 | 158 | 1.7 | 4.3 | 0.00 | 0.00 | 0.00 | 72 | 1017.3 |
| 20260902010314 | 88 | 153 | 1.7 | 3.5 | 0.00 | 0.00 | 0.00 | 72 | 1017.2 |
| 20260902005316 | 88 | 175 | 2.6 | 4.3 | 0.00 | 0.00 | 0.00 | 72 | 1017.1 |
| 20260902004312 | 89 | 184 | 1.7 | 4.3 | 0.00 | 0.00 | 0.00 | 71 | 1017.0 |
| 20260902003335 | 89 | 155 | 1.7 | 3.5 | 0.00 | 0.00 | 0.00 | 71 | 1017.0 |
| 20260902002356 | 89 | 161 | 1.7 | 3.5 | 0.00 | 0.00 | 0.00 | 70 | 1016.9 |
| 20260902001326 | 90 | 151 | 2.6 | 5.2 | 0.00 | 0.00 | 0.00 | 70 | 1017.0 |
| 20260902000322 | 90 | 150 | 2.6 | 4.3 | 0.00 | 0.00 | 0.00 | 70 | 1017.1 |
| 20260901235323 | 90 | 115 | 2.6 | 4.3 | 0.00 | 0.00 | 0.00 | 69 | 1017.2 |
| 20260901234322 | 91 | 122 | 2.6 | 4.3 | 0.00 | 0.00 | 0.00 | 68 | 1017.2 |
| 20260901233324 | 91 | 163 | 2.6 | 4.3 | 0.00 | 0.00 | 0.00 | 68 | 1017.2 |
| 20260901232320 | 92 | 153 | 2.6 | 5.2 | 0.00 | 0.00 | 0.00 | 68 | 1017.2 |
| 20260901231315 | 92 | 146 | 2.6 | 5.2 | 0.00 | 0.00 | 0.00 | 67 | 1017.2 |
| 20260901230318 | 93 | 157 | 3.5 | 5.2 | 0.00 | 0.00 | 0.00 | 66 | 1017.3 |
| 20260901225314 | 93 | 155 | 2.6 | 5.2 | 0.00 | 0.00 | 0.00 | 66 | 1017.4 |
| 20260901224309 | 94 | 171 | 1.7 | 4.3 | 0.00 | 0.00 | 0.00 | 66 | 1017.3 |
| 20260901223309 | 95 | 169 | 2.6 | 4.3 | 0.00 | 0.00 | 0.00 | 63 | 1017.2 |
| 20260901222325 | 95 | 133 | 2.6 | 5.2 | 0.00 | 0.00 | 0.00 | 63 | 1017.2 |
| 20260901221327 | 96 | 96 | 1.7 | 6.1 | 0.00 | 0.00 | 0.00 | 63 | 1017.3 |
| 20260901220321 | 97 | 34 | 0.9 | 3.5 | 0.00 | 0.00 | 0.00 | 59 | 1017.3 |
| 20260901215317 | 97 | 90 | 0.9 | 2.6 | 0.00 | 0.00 | 0.00 | 59 | 1017.3 |
| 20260901214317 | 98 | 71 | 1.7 | 5.2 | 0.00 | 0.00 | 0.00 | 59 | 1017.3 |
| 20260901213311 | 98 | 76 | 1.7 | 5.2 | 0.00 | 0.00 | 0.00 | 59 | 1017.2 |
| 20260901212313 | 98 | 39 | 1.7 | 5.2 | 0.00 | 0.00 | 0.00 | 59 | 1017.3 |
| 20260901211334 | 98 | 150 | 1.7 | 6.1 | 0.00 | 0.00 | 0.00 | 56 | 1017.2 |
| 20260901210356 | 100 | 169 | 2.6 | 5.2 | 0.00 | 0.00 | 0.00 | 55 | 1017.2 |
| 20260901205345 | 101 | 88 | 3.5 | 7.0 | 0.00 | 0.00 | 0.00 | 55 | 1017.2 |
| 20260901204325 | 101 | 44 | 2.6 | 3.5 | 0.00 | 0.00 | 0.00 | 55 | 1017.2 |
| 20260901203324 | 101 | 44 | 2.6 | 5.2 | 0.00 | 0.00 | 0.00 | 54 | 1017.3 |
| 20260901202316 | 101 | 82 | 1.7 | 5.2 | 0.00 | 0.00 | 0.00 | 51 | 1017.4 |
| 20260901201334 | 100 | 355 | 3.5 | 7.0 | 0.00 | 0.00 | 0.00 | 54 | 1017.3 |
| 20260901200332 | 100 | 90 | 1.7 | 4.3 | 0.00 | 0.00 | 0.00 | 54 | 1017.5 |
| 20260901195324 | 100 | 170 | 1.7 | 4.3 | 0.00 | 0.00 | 0.00 | 56 | 1017.6 |
| 20260901194325 | 99 | 106 | 1.7 | 6.1 | 0.00 | 0.00 | 0.00 | 55 | 1017.7 |
| 20260901193315 | 100 | 56 | 1.7 | 4.3 | 0.00 | 0.00 | 0.00 | 53 | 1017.9 |
| 20260901192332 | 101 | 103 | 1.7 | 6.1 | 0.00 | 0.00 | 0.00 | 54 | 1018.0 |
| 20260901191341 | 100 | 126 | 1.7 | 6.1 | 0.00 | 0.00 | 0.00 | 56 | 1018.1 |
| 20260901190338 | 99 | 171 | 2.6 | 6.1 | 0.00 | 0.00 | 0.00 | 55 | 1018.2 |
| 20260901185334 | 99 | 136 | 2.6 | 7.0 | 0.00 | 0.00 | 0.00 | 58 | 1018.2 |
| 20260901184327 | 98 | 128 | 2.6 | 6.1 | 0.00 | 0.00 | 0.00 | 58 | 1018.2 |
| 20260901183318 | 98 | 57 | 1.7 | 5.2 | 0.00 | 0.00 | 0.00 | 58 | 1018.3 |
| 20260901182318 | 97 | 54 | 1.7 | 4.3 | 0.00 | 0.00 | 0.00 | 60 | 1018.4 |
| 20260901181313 | 98 | 48 | 1.7 | 6.1 | 0.00 | 0.00 | 0.00 | 57 | 1018.4 |
| 20260901180332 | 98 | 88 | 1.7 | 5.2 | 0.00 | 0.00 | 0.00 | 58 | 1018.4 |
| 20260901175323 | 97 | 77 | 0.9 | 2.6 | 0.00 | 0.00 | 0.00 | 58 | 1018.5 |
| 20260901174324 | 98 | 199 | 0.9 | 4.3 | 0.00 | 0.00 | 0.00 | 55 | 1018.6 |
| 20260901173318 | 98 | 360 | 2.6 | 5.2 | 0.00 | 0.00 | 0.00 | 56 | 1018.6 |
| 20260901172314 | 98 | 298 | 1.7 | 5.2 | 0.00 | 0.00 | 0.00 | 59 | 1018.7 |
| 20260901171329 | 97 | 263 | 0.9 | 3.5 | 0.00 | 0.00 | 0.00 | 59 | 1018.9 |
| 20260901170322 | 96 | 208 | 3.5 | 6.1 | 0.00 | 0.00 | 0.00 | 60 | 1018.9 |
| 20260901165318 | 96 | 287 | 2.6 | 4.3 | 0.00 | 0.00 | 0.00 | 61 | 1019.0 |
| 20260901164321 | 96 | 44 | 0.9 | 6.1 | 0.00 | 0.00 | 0.00 | 62 | 1019.2 |
| 20260901163333 | 96 | 333 | 2.6 | 6.1 | 0.00 | 0.00 | 0.00 | 63 | 1019.2 |
| 20260901162310 | 95 | 261 | 1.7 | 6.1 | 0.00 | 0.00 | 0.00 | 64 | 1019.4 |
| 20260901161331 | 95 | 213 | 2.6 | 7.0 | 0.00 | 0.00 | 0.00 | 63 | 1019.5 |
| 20260901160323 | 95 | 265 | 2.6 | 5.2 | 0.00 | 0.00 | 0.00 | 64 | 1019.6 |
| 20260901155341 | 95 | 254 | 0.9 | 6.1 | 0.00 | 0.00 | 0.00 | 62 | 1019.7 |
| 20260901154313 | 95 | 271 | 2.6 | 7.8 | 0.00 | 0.00 | 0.00 | 62 | 1019.7 |
| 20260901153311 | 94 | 348 | 1.7 | 6.1 | 0.00 | 0.00 | 0.00 | 63 | 1019.8 |
| 20260901152325 | 94 | 249 | 3.5 | 7.0 | 0.00 | 0.00 | 0.00 | 64 | 1019.9 |
| 20260901151317 | 93 | 223 | 0.9 | 6.1 | 0.00 | 0.00 | 0.00 | 68 | 1020.0 |
| 20260901150327 | 92 | 284 | 2.6 | 6.1 | 0.00 | 0.00 | 0.00 | 68 | 1020.0 |
| 20260901145331 | 92 | 145 | 3.5 | 7.8 | 0.00 | 0.00 | 0.00 | 69 | 1020.2 |
| 20260901144313 | 91 | 185 | 3.5 | 5.2 | 0.00 | 0.00 | 0.00 | 70 | 1020.1 |
| 20260901143325 | 91 | 244 | 3.5 | 7.0 | 0.00 | 0.00 | 0.00 | 71 | 1020.2 |
| 20260901142322 | 90 | 215 | 3.5 | 7.0 | 0.00 | 0.00 | 0.00 | 73 | 1020.1 |
| 20260901141338 | 89 | 291 | 2.6 | 6.1 | 0.00 | 0.00 | 0.00 | 74 | 1020.0 |
| 20260901140324 | 89 | 240 | 2.6 | 6.1 | 0.00 | 0.00 | 0.00 | 77 | 1019.9 |
| 20260901135321 | 88 | 255 | 1.7 | 5.2 | 0.00 | 0.00 | 0.00 | 78 | 1019.9 |
| 20260901134311 | 87 | 252 | 2.6 | 6.1 | 0.00 | 0.00 | 0.00 | 78 | 1019.9 |
| 20260901133349 | 87 | 265 | 2.6 | 7.0 | 0.00 | 0.00 | 0.00 | 79 | 1020.0 |
| 20260901132317 | 86 | 252 | 2.6 | 7.8 | 0.00 | 0.00 | 0.00 | 81 | 1019.9 |
| 20260901131315 | 85 | 304 | 2.6 | 6.1 | 0.00 | 0.00 | 0.00 | 82 | 1020.0 |
| 20260901130325 | 84 | 294 | 3.5 | 7.8 | 0.00 | 0.00 | 0.00 | 84 | 1019.9 |
| 20260901125342 | 83 | 295 | 3.5 | 4.3 | 0.00 | 0.00 | 0.00 | 86 | 1019.9 |
| 20260901124312 | 82 | 279 | 2.6 | 7.8 | 0.00 | 0.00 | 0.00 | 87 | 1020.0 |
| 20260901123313 | 81 | 262 | 3.5 | 6.1 | 0.00 | 0.00 | 0.00 | 90 | 1019.9 |
| 20260901122311 | 81 | 267 | 2.6 | 7.0 | 0.00 | 0.00 | 0.00 | 91 | 1019.9 |
| 20260901121334 | 80 | 242 | 2.6 | 4.3 | 0.00 | 0.00 | 0.00 | 91 | 1019.8 |
| 20260901120309 | 80 | 240 | 1.7 | 4.3 | 0.00 | 0.00 | 0.00 | 92 | 1019.7 |
| 20260901115334 | 79 | 237 | 2.6 | 4.3 | 0.00 | 0.00 | 0.00 | 93 | 1019.6 |
| 20260901114310 | 79 | 239 | 2.6 | 4.3 | 0.00 | 0.00 | 0.00 | 93 | 1019.5 |
| 20260901113326 | 79 | 257 | 2.6 | 3.5 | 0.00 | 0.00 | 0.00 | 93 | 1019.4 |
| 20260901112328 | 79 | 229 | 1.7 | 2.6 | 0.00 | 0.00 | 0.00 | 93 | 1019.3 |
| 20260901111324 | 79 | 225 | 2.6 | 4.3 | 0.00 | 0.00 | 0.00 | 93 | 1019.2 |
| 20260901110348 | 79 | 251 | 2.6 | 4.3 | 0.00 | 0.00 | 0.00 | 93 | 1019.2 |
| 20260901105321 | 79 | 243 | 2.6 | 6.1 | 0.00 | 0.00 | 0.00 | 93 | 1019.1 |
| 20260901104323 | 79 | 261 | 2.6 | 5.2 | 0.00 | 0.00 | 0.00 | 93 | 1019.1 |
| 20260901103318 | 78 | 273 | 2.6 | 6.1 | 0.00 | 0.00 | 0.00 | 93 | 1019.1 |
| 20260901102323 | 78 | 242 | 2.6 | 4.3 | 0.00 | 0.00 | 0.00 | 93 | 1019.1 |
| 20260901101316 | 78 | 226 | 1.7 | 3.5 | 0.00 | 0.00 | 0.00 | 92 | 1019.1 |
| 20260901100309 | 78 | 204 | 1.7 | 4.3 | 0.00 | 0.00 | 0.00 | 92 | 1019.1 |
| 20260901095332 | 79 | 244 | 1.7 | 4.3 | 0.00 | 0.00 | 0.00 | 92 | 1019.0 |
| 20260901094334 | 79 | 262 | 1.7 | 3.5 | 0.00 | 0.00 | 0.00 | 92 | 1019.0 |
| 20260901093309 | 79 | 232 | 2.6 | 4.3 | 0.00 | 0.00 | 0.00 | 92 | 1019.0 |
| 20260901092325 | 79 | 244 | 1.7 | 7.0 | 0.00 | 0.00 | 0.00 | 92 | 1019.0 |
| 20260901091323 | 79 | 232 | 1.7 | 4.3 | 0.00 | 0.00 | 0.00 | 92 | 1019.1 |
| 20260901090322 | 79 | 209 | 1.7 | 3.5 | 0.00 | 0.00 | 0.00 | 91 | 1019.2 |
| 20260901085319 | 79 | 196 | 2.6 | 3.5 | 0.00 | 0.00 | 0.00 | 91 | 1019.3 |
| 20260901084320 | 79 | 223 | 1.7 | 4.3 | 0.00 | 0.00 | 0.00 | 91 | 1019.2 |
| 20260901083313 | 79 | 194 | 2.6 | 4.3 | 0.00 | 0.00 | 0.00 | 91 | 1019.2 |
| 20260901082334 | 79 | 213 | 1.7 | 5.2 | 0.00 | 0.00 | 0.00 | 91 | 1019.2 |
| 20260901081353 | 79 | 166 | 2.6 | 3.5 | 0.00 | 0.00 | 0.00 | 90 | 1019.2 |
| 20260901080327 | 79 | 212 | 1.7 | 3.5 | 0.00 | 0.00 | 0.00 | 90 | 1019.2 |
| 20260901075324 | 79 | 236 | 1.7 | 6.1 | 0.00 | 0.00 | 0.00 | 90 | 1019.3 |
| 20260901074342 | 79 | 249 | 2.6 | 4.3 | 0.00 | 0.00 | 0.00 | 90 | 1019.3 |
| 20260901073323 | 80 | 202 | 1.7 | 4.3 | 0.00 | 0.00 | 0.00 | 90 | 1019.3 |
| 20260901072317 | 80 | 146 | 1.7 | 4.3 | 0.00 | 0.00 | 0.00 | 90 | 1019.3 |
| 20260901071312 | 80 | 233 | 1.7 | 4.3 | 0.00 | 0.00 | 0.00 | 90 | 1019.4 |
| 20260901070314 | 80 | 243 | 1.7 | 4.3 | 0.00 | 0.00 | 0.00 | 90 | 1019.4 |
| 20260901065353 | 80 | 154 | 2.6 | 3.5 | 0.00 | 0.00 | 0.00 | 90 | 1019.5 |
| 20260901064327 | 80 | 200 | 2.6 | 4.3 | 0.00 | 0.00 | 0.00 | 90 | 1019.6 |
| 20260901063321 | 80 | 202 | 1.7 | 4.3 | 0.00 | 0.00 | 0.00 | 90 | 1019.7 |
| 20260901062324 | 80 | 95 | 2.6 | 3.5 | 0.00 | 0.00 | 0.00 | 90 | 1019.7 |
| 20260901061318 | 80 | 221 | 2.6 | 5.2 | 0.00 | 0.00 | 0.00 | 89 | 1019.8 |
| 20260901060313 | 80 | 185 | 1.7 | 4.3 | 0.00 | 0.00 | 0.00 | 89 | 1019.9 |
| 20260901055320 | 80 | 153 | 2.6 | 3.5 | 0.00 | 0.00 | 0.00 | 89 | 1019.9 |
| 20260901054316 | 81 | 86 | 1.7 | 4.3 | 0.00 | 0.00 | 0.00 | 88 | 1019.8 |
| 20260901053316 | 81 | 174 | 2.6 | 4.3 | 0.00 | 0.00 | 0.00 | 88 | 1019.9 |
| 20260901052310 | 81 | 159 | 1.7 | 4.3 | 0.00 | 0.00 | 0.00 | 88 | 1020.0 |
| 20260901051333 | 81 | 192 | 2.6 | 6.1 | 0.00 | 0.00 | 0.00 | 88 | 1020.0 |
| 20260901050310 | 81 | 205 | 2.6 | 5.2 | 0.00 | 0.00 | 0.00 | 87 | 1020.1 |
| 20260901045323 | 81 | 236 | 2.6 | 4.3 | 0.00 | 0.00 | 0.00 | 87 | 1020.1 |
| 20260901044346 | 81 | 183 | 2.6 | 6.1 | 0.00 | 0.00 | 0.00 | 87 | 1020.0 |